Radiation Dose at Monitoring Post of Fukushima Daini Nuclear Power Station
Date,Time,MP-1(microSv/h),MP-2(microSv/h),MP-3(microSv/h),MP-4(microSv/h),MP-5(microSv/h),MP-6(microSv/h),MP-7(microSv/h),Wind Direction,Wind Velocity(m/s),Rain
2024/03/31,00:00,0.144,0.126,0.204,0.193,0.203,0.114,0.074,south-southeast,4.6,No
2024/03/31,00:10,0.144,0.125,0.205,0.193,0.205,0.114,0.075,south-southeast,5.5,No
2024/03/31,00:20,0.145,0.125,0.203,0.193,0.202,0.113,0.075,south-southeast,5.3,No
2024/03/31,00:30,0.145,0.125,0.205,0.194,0.204,0.115,0.075,south,5.3,No
2024/03/31,00:40,0.144,0.125,0.204,0.195,0.203,0.114,0.074,south,5.7,No
2024/03/31,00:50,0.145,0.126,0.204,0.193,0.202,0.115,0.074,south,5.5,No
2024/03/31,01:00,0.145,0.126,0.204,0.193,0.205,0.114,0.074,south,4.9,No
2024/03/31,01:10,0.144,0.125,0.205,0.195,0.203,0.114,0.074,south,4.4,No
2024/03/31,01:20,0.144,0.125,0.204,0.194,0.203,0.114,0.076,south-southwest,2.6,No
2024/03/31,01:30,0.144,0.125,0.204,0.194,0.203,0.114,0.075,south,1.0,No
2024/03/31,01:40,0.145,0.125,0.205,0.196,0.204,0.114,0.075,south-southeast,1.8,No
2024/03/31,01:50,0.144,0.125,0.204,0.193,0.203,0.114,0.075,south,1.7,No
2024/03/31,02:00,0.144,0.125,0.204,0.193,0.203,0.114,0.075,south-southwest,2.0,No
2024/03/31,02:10,0.145,0.125,0.205,0.193,0.204,0.114,0.075,south-southwest,2.0,No
2024/03/31,02:20,0.144,0.126,0.204,0.193,0.203,0.113,0.075,south-southwest,2.0,No
2024/03/31,02:30,0.144,0.125,0.204,0.194,0.203,0.115,0.075,southwest,2.4,No
2024/03/31,02:40,0.144,0.125,0.205,0.195,0.205,0.115,0.075,west,1.1,No
2024/03/31,02:50,0.145,0.126,0.204,0.193,0.202,0.114,0.075,northwest,1.5,No
2024/03/31,03:00,0.145,0.126,0.206,0.195,0.205,0.115,0.074,north-northwest,2.8,No
2024/03/31,03:10,0.145,0.125,0.205,0.195,0.202,0.114,0.075,northwest,3.1,No
2024/03/31,03:20,0.146,0.125,0.204,0.194,0.205,0.115,0.075,north-northwest,3.5,No
2024/03/31,03:30,0.144,0.126,0.204,0.195,0.203,0.114,0.075,northwest,3.2,No
2024/03/31,03:40,0.145,0.126,0.205,0.193,0.204,0.114,0.074,northwest,3.2,No
2024/03/31,03:50,0.145,0.126,0.205,0.193,0.205,0.114,0.075,northwest,2.2,No
2024/03/31,04:00,0.144,0.125,0.204,0.194,0.204,0.114,0.075,northwest,2.1,No
2024/03/31,04:10,0.145,0.125,0.206,0.194,0.204,0.115,0.075,west-northwest,2.3,No
2024/03/31,04:20,0.145,0.126,0.203,0.194,0.204,0.114,0.075,north-northwest,2.8,No
2024/03/31,04:30,0.145,0.125,0.205,0.194,0.203,0.114,0.074,northwest,2.4,No
2024/03/31,04:40,0.145,0.125,0.205,0.195,0.204,0.115,0.075,north-northwest,2.0,No
2024/03/31,04:50,0.144,0.126,0.204,0.194,0.203,0.114,0.075,north-northwest,1.8,No
2024/03/31,05:00,0.145,0.126,0.204,0.194,0.203,0.115,0.074,north-northwest,0.7,No
2024/03/31,05:10,0.146,0.126,0.204,0.193,0.204,0.114,0.075,north-northeast,1.0,No
2024/03/31,05:20,0.144,0.126,0.206,0.194,0.204,0.114,0.074,-,CALM,No
2024/03/31,05:30,0.144,0.125,0.205,0.195,0.204,0.114,0.074,east-northeast,0.7,No
2024/03/31,05:40,0.144,0.126,0.206,0.195,0.204,0.115,0.075,east-northeast,1.3,No
2024/03/31,05:50,0.145,0.127,0.204,0.194,0.203,0.115,0.075,south-southeast,1.4,No
2024/03/31,06:00,0.144,0.125,0.204,0.194,0.203,0.115,0.075,west-southwest,2.2,No
2024/03/31,06:10,0.145,0.125,0.204,0.194,0.204,0.114,0.074,southwest,2.3,No
2024/03/31,06:20,0.145,0.126,0.205,0.194,0.203,0.114,0.075,west-southwest,3.7,No
2024/03/31,06:30,0.145,0.126,0.204,0.194,0.205,0.114,0.075,west,6.8,No
2024/03/31,06:40,0.145,0.125,0.205,0.194,0.204,0.114,0.075,west,6.9,No
2024/03/31,06:50,0.145,0.126,0.204,0.194,0.202,0.114,0.075,west,5.8,No
2024/03/31,07:00,0.145,0.125,0.206,0.194,0.205,0.114,0.074,west-northwest,4.5,No
2024/03/31,07:10,0.144,0.125,0.205,0.194,0.203,0.114,0.074,west-northwest,4.3,No
2024/03/31,07:20,0.144,0.125,0.204,0.194,0.204,0.114,0.075,west-northwest,4.8,No
2024/03/31,07:30,0.144,0.125,0.203,0.193,0.202,0.114,0.074,west-northwest,5.0,No
2024/03/31,07:40,0.144,0.125,0.203,0.194,0.204,0.114,0.075,west-northwest,3.8,No
2024/03/31,07:50,0.145,0.124,0.203,0.193,0.202,0.113,0.074,northwest,5.0,No
2024/03/31,08:00,0.143,0.126,0.204,0.194,0.204,0.114,0.074,west-northwest,6.4,No
2024/03/31,08:10,0.145,0.124,0.201,0.192,0.202,0.113,0.074,west-northwest,5.9,No
2024/03/31,08:20,0.143,0.125,0.203,0.192,0.204,0.114,0.075,west-northwest,5.7,No
2024/03/31,08:30,0.144,0.124,0.203,0.193,0.202,0.113,0.074,west-northwest,6.0,No
2024/03/31,08:40,0.144,0.126,0.203,0.192,0.204,0.114,0.073,west-northwest,6.9,No
2024/03/31,08:50,0.143,0.124,0.201,0.193,0.203,0.114,0.075,west-northwest,5.5,No
2024/03/31,09:00,0.145,0.125,0.202,0.194,0.202,0.114,0.075,west-northwest,5.8,No
2024/03/31,09:10,0.143,0.126,0.206,0.193,0.204,0.113,0.075,northwest,6.7,No
2024/03/31,09:20,0.144,0.124,0.204,0.192,0.202,0.113,0.073,northwest,6.7,No
2024/03/31,09:30,0.145,0.125,0.202,0.193,0.203,0.114,0.074,west-northwest,8.3,No
2024/03/31,09:40,0.144,0.125,0.202,0.193,0.203,0.114,0.074,west-northwest,7.5,No
2024/03/31,09:50,0.143,0.124,0.202,0.191,0.203,0.113,0.075,west-northwest,9.6,No
2024/03/31,10:00,0.144,0.126,0.206,0.192,0.202,0.115,0.074,west,9.2,No
2024/03/31,10:10,0.144,0.125,0.204,0.193,0.205,0.114,0.074,west-northwest,11.5,No
2024/03/31,10:20,0.144,0.124,0.204,0.192,0.203,0.114,0.074,west-northwest,12.3,No
2024/03/31,10:30,0.145,0.125,0.203,0.191,0.203,0.114,0.075,west-northwest,10.6,No
2024/03/31,10:40,0.144,0.124,0.203,0.194,0.204,0.114,0.074,west-northwest,8.8,No
2024/03/31,10:50,0.144,0.124,0.205,0.194,0.202,0.113,0.074,west-northwest,9.0,No
2024/03/31,11:00,0.146,0.125,0.205,0.194,0.202,0.115,0.075,west-northwest,6.3,No
2024/03/31,11:10,0.143,0.125,0.205,0.194,0.203,0.114,0.073,west,8.3,No
2024/03/31,11:20,0.144,0.125,0.204,0.196,0.204,0.113,0.074,west-northwest,8.2,No
2024/03/31,11:30,0.146,0.126,0.202,0.193,0.203,0.113,0.075,west-northwest,7.5,No
2024/03/31,11:40,0.145,0.125,0.203,0.192,0.201,0.114,0.075,west-northwest,6.1,No
2024/03/31,11:50,0.144,0.126,0.206,0.194,0.205,0.114,0.074,west,7.6,No
2024/03/31,12:00,0.145,0.126,0.205,0.195,0.204,0.114,0.074,west,8.6,No
2024/03/31,12:10,0.143,0.126,0.205,0.194,0.202,0.113,0.075,west,6.9,No
2024/03/31,12:20,0.143,0.125,0.204,0.193,0.202,0.114,0.075,west,8.7,No
2024/03/31,12:30,0.145,0.125,0.203,0.191,0.201,0.115,0.074,west-northwest,6.7,No
2024/03/31,12:40,0.144,0.126,0.203,0.194,0.204,0.114,0.074,west-northwest,7.9,No
2024/03/31,12:50,0.144,0.124,0.203,0.195,0.204,0.114,0.074,northwest,8.5,No
2024/03/31,13:00,0.143,0.125,0.202,0.194,0.203,0.114,0.074,west-northwest,9.6,No
2024/03/31,13:10,0.145,0.126,0.205,0.193,0.202,0.114,0.074,west-northwest,7.4,No
2024/03/31,13:20,0.145,0.125,0.206,0.194,0.203,0.114,0.075,west-northwest,6.9,No
2024/03/31,13:30,0.144,0.125,0.206,0.195,0.206,0.114,0.074,west-northwest,7.7,No
2024/03/31,13:40,0.147,0.126,0.205,0.194,0.205,0.114,0.074,west,6.4,No
2024/03/31,13:50,0.145,0.126,0.203,0.192,0.202,0.114,0.074,west,6.4,No
2024/03/31,14:00,0.144,0.126,0.203,0.195,0.201,0.114,0.074,west-northwest,6.7,No
2024/03/31,14:10,0.145,0.126,0.204,0.196,0.202,0.114,0.074,west-northwest,7.6,No
2024/03/31,14:20,0.146,0.126,0.207,0.194,0.206,0.115,0.074,west-northwest,6.8,No
2024/03/31,14:30,0.145,0.126,0.206,0.192,0.205,0.114,0.075,west-northwest,5.1,No
2024/03/31,14:40,0.144,0.125,0.205,0.195,0.203,0.115,0.075,west-northwest,4.1,No
2024/03/31,14:50,0.145,0.126,0.204,0.195,0.202,0.114,0.073,west,5.1,No
2024/03/31,15:00,0.146,0.125,0.204,0.194,0.201,0.114,0.075,west,3.8,No
2024/03/31,15:10,0.145,0.124,0.206,0.194,0.206,0.113,0.074,west-northwest,5.0,No
2024/03/31,15:20,0.145,0.126,0.205,0.196,0.205,0.114,0.075,west-northwest,8.9,No
2024/03/31,15:30,0.145,0.126,0.205,0.194,0.203,0.115,0.075,west-northwest,9.2,No
2024/03/31,15:40,0.144,0.125,0.207,0.196,0.204,0.114,0.075,west,8.1,No
2024/03/31,15:50,0.146,0.126,0.204,0.195,0.206,0.114,0.075,west,8.1,No
2024/03/31,16:00,0.144,0.126,0.207,0.195,0.203,0.115,0.074,west-northwest,8.9,No
2024/03/31,16:10,0.146,0.126,0.207,0.195,0.204,0.115,0.074,west-northwest,6.1,No
2024/03/31,16:20,0.146,0.126,0.206,0.195,0.205,0.114,0.074,west-northwest,5.9,No
2024/03/31,16:30,0.146,0.126,0.206,0.197,0.203,0.115,0.075,west-northwest,3.4,No
2024/03/31,16:40,0.145,0.126,0.206,0.195,0.205,0.114,0.075,northwest,1.9,No
2024/03/31,16:50,0.144,0.126,0.205,0.196,0.205,0.115,0.075,north-northeast,1.0,No
2024/03/31,17:00,0.146,0.126,0.206,0.194,0.206,0.114,0.075,west-northwest,2.4,No
2024/03/31,17:10,0.145,0.127,0.205,0.196,0.204,0.115,0.075,northwest,1.4,No
2024/03/31,17:20,0.146,0.126,0.207,0.195,0.203,0.115,0.075,west,2.1,No
2024/03/31,17:30,0.145,0.126,0.207,0.196,0.205,0.115,0.074,west-northwest,3.7,Yes
2024/03/31,17:40,0.146,0.126,0.206,0.196,0.204,0.114,0.075,-,CALM,No
2024/03/31,17:50,0.145,0.126,0.205,0.196,0.206,0.115,0.074,northwest,0.7,No
2024/03/31,18:00,0.147,0.126,0.207,0.195,0.204,0.114,0.075,west-northwest,1.8,No
2024/03/31,18:10,0.144,0.126,0.206,0.196,0.205,0.113,0.075,northwest,1.7,No
2024/03/31,18:20,0.145,0.125,0.206,0.196,0.204,0.114,0.075,east,2.2,No
2024/03/31,18:30,0.145,0.126,0.206,0.196,0.205,0.114,0.075,east,1.7,No
2024/03/31,18:40,0.146,0.127,0.206,0.195,0.204,0.114,0.075,east,2.5,No
2024/03/31,18:50,0.145,0.126,0.206,0.195,0.204,0.114,0.074,east,2.1,No
2024/03/31,19:00,0.146,0.126,0.206,0.196,0.204,0.115,0.075,east,1.9,No
2024/03/31,19:10,0.146,0.126,0.207,0.195,0.205,0.115,0.075,east-northeast,1.4,No
2024/03/31,19:20,0.146,0.126,0.206,0.195,0.205,0.114,0.075,northeast,0.8,No
2024/03/31,19:30,0.146,0.126,0.206,0.195,0.203,0.114,0.075,east,1.7,No
2024/03/31,19:40,0.145,0.125,0.205,0.196,0.205,0.114,0.075,east-northeast,2.2,No
2024/03/31,19:50,0.146,0.126,0.205,0.196,0.204,0.116,0.075,east,2.3,No
2024/03/31,20:00,0.145,0.126,0.207,0.195,0.205,0.114,0.076,east,2.4,No
2024/03/31,20:10,0.146,0.125,0.206,0.196,0.204,0.114,0.075,east,1.5,No
2024/03/31,20:20,0.145,0.126,0.207,0.195,0.205,0.114,0.075,-,CALM,No
2024/03/31,20:30,0.146,0.126,0.206,0.196,0.205,0.114,0.074,-,CALM,No
2024/03/31,20:40,0.144,0.126,0.206,0.196,0.205,0.114,0.074,-,CALM,No
2024/03/31,20:50,0.145,0.126,0.206,0.195,0.204,0.114,0.075,-,CALM,No
2024/03/31,21:00,0.145,0.126,0.206,0.195,0.203,0.115,0.075,northeast,1.0,No
2024/03/31,21:10,0.146,0.127,0.206,0.195,0.205,0.115,0.075,northeast,0.9,No
2024/03/31,21:20,0.146,0.125,0.207,0.197,0.203,0.115,0.074,north-northeast,0.7,No
2024/03/31,21:30,0.146,0.128,0.206,0.195,0.206,0.115,0.075,north,1.5,No
2024/03/31,21:40,0.146,0.126,0.207,0.195,0.203,0.114,0.074,north,1.9,No
2024/03/31,21:50,0.145,0.126,0.208,0.196,0.206,0.115,0.075,north,3.7,No
2024/03/31,22:00,0.146,0.126,0.206,0.195,0.204,0.114,0.075,north-northwest,4.1,No
2024/03/31,22:10,0.145,0.126,0.208,0.196,0.206,0.115,0.075,north-northwest,4.5,No
2024/03/31,22:20,0.146,0.126,0.206,0.195,0.205,0.114,0.076,north-northwest,4.5,No
2024/03/31,22:30,0.146,0.126,0.206,0.196,0.205,0.114,0.075,north-northwest,3.6,No
2024/03/31,22:40,0.145,0.126,0.205,0.194,0.204,0.115,0.074,north-northwest,2.9,No
2024/03/31,22:50,0.146,0.126,0.206,0.196,0.203,0.115,0.075,north-northwest,1.9,No
2024/03/31,23:00,0.145,0.126,0.207,0.197,0.206,0.114,0.075,north-northwest,2.4,No
2024/03/31,23:10,0.146,0.125,0.206,0.195,0.204,0.114,0.075,north-northwest,2.0,No
2024/03/31,23:20,0.145,0.126,0.205,0.196,0.205,0.114,0.075,north-northwest,3.9,No
2024/03/31,23:30,0.146,0.126,0.205,0.196,0.205,0.115,0.075,north-northwest,2.2,No
2024/03/31,23:40,0.145,0.126,0.207,0.195,0.206,0.115,0.074,north-northwest,2.5,No
2024/03/31,23:50,0.145,0.126,0.206,0.196,0.206,0.115,0.075,northwest,0.7,No
